GW0260 Weather Reports


time (UTC)temp
F
wind
direction
speed
knots
gust
knots
rain 1hr
in
rain 24hr
in
rain mn
in
humidity
%
barometer
mb
20260507021220 59 254 3.5 4.3 0.00 0.11 0.11 99
20260507020719 59 316 2.6 4.3 0.00 0.11 0.11 99
20260507020214 58 282 2.6 4.3 0.00 0.11 0.11 99
20260507015712 58 268 3.5 7.0 0.00 0.11 0.11 99
20260507015209 58 275 2.6 5.2 0.00 0.11 0.11 99
20260507014706 58 249 0.0 2.6 0.00 0.11 0.11 99
20260507014202 58 216 1.7 1.7 0.00 0.11 0.11 99
20260507013659 58 250 0.9 4.3 0.00 0.11 0.11 99
20260507013156 58 237 1.7 2.6 0.00 0.11 0.11 99
20260507012654 58 233 1.7 5.2 0.00 0.11 0.11 99
20260507012149 58 286 2.6 4.3 0.00 0.11 0.11 99
20260507011647 58 262 0.9 4.3 0.00 0.11 0.11 99
20260507011143 58 209 5.2 8.7 0.00 0.11 0.11 99
20260507010638 58 291 5.2 6.1 0.00 0.11 0.11 99
20260507010134 58 221 5.2 7.8 0.00 0.11 0.11 99
20260507005632 58 294 1.7 5.2 0.00 0.11 0.11 99
20260507005127 58 230 1.7 2.6 0.00 0.11 0.11 99
20260507004624 58 276 2.6 6.1 0.00 0.11 0.11 99
20260507004122 58 324 1.7 2.6 0.00 0.11 0.11 99
20260507003618 58 284 2.6 7.8 0.00 0.11 0.11 99
20260507003113 58 208 3.5 5.2 0.00 0.11 0.11 99
20260507002610 58 222 2.6 4.3 0.00 0.11 0.11 99
20260507002105 58 244 2.6 4.3 0.00 0.11 0.11 99
20260507001603 58 297 1.7 5.2 0.00 0.11 0.11 99
20260507001100 58 288 0.9 4.3 0.00 0.11 0.11 99
20260507000556 58 324 1.7 1.7 0.00 0.11 0.11 99
20260507000052 58 230 1.7 1.7 0.00 0.11 0.11 99
20260506235550 58 349 2.6 2.6 0.00 0.11 0.11 99
20260506235044 58 307 1.7 1.7 0.00 0.11 0.11 99
20260506234542 58 224 0.9 4.3 0.00 0.11 0.11 99
20260506234039 58 344 0.9 2.6 0.00 0.11 0.11 99
20260506233536 58 281 0.9 1.7 0.05 0.11 0.11 99
20260506233033 58 293 0.9 2.6 0.12 0.11 0.11 99
20260506232529 59 216 2.6 2.6 0.00 0.09 0.09 99
20260506232025 59 331 0.0 1.7 0.00 0.09 0.09 99
20260506231522 59 191 2.6 4.3 0.05 0.09 0.09 99
20260506231020 59 235 2.6 5.2 0.05 0.09 0.09 99
20260506230516 59 202 0.9 1.7 0.07 0.08 0.08 99
20260506230014 59 79 0.9 1.7 0.00 0.07 0.07 99
20260506225510 59 245 2.6 6.1 0.00 0.07 0.07 99
20260506225007 59 241 1.7 1.7 0.00 0.07 0.07 99
20260506224504 59 278 0.0 5.2 0.00 0.07 0.07 99
20260506224000 59 270 1.7 1.7 0.00 0.07 0.07 99
20260506223456 59 329 0.9 2.6 0.00 0.07 0.07 99
20260506222953 59 228 1.7 2.6 0.00 0.07 0.07 99
20260506222450 59 219 0.9 2.6 0.05 0.07 0.07 99
20260506221947 59 285 3.5 5.2 0.05 0.07 0.07 99
20260506221444 59 312 2.6 4.3 0.00 0.06 0.06 99
20260506220942 60 198 0.9 1.7 0.00 0.06 0.06 99
20260506220437 60 228 2.6 2.6 0.00 0.06 0.06 99
20260506215934 60 205 1.7 4.3 0.00 0.06 0.06 99
20260506215430 60 229 0.9 2.6 0.00 0.06 0.06 99
20260506214926 60 208 0.9 4.3 0.00 0.06 0.06 99
20260506214423 60 245 0.9 5.2 0.00 0.06 0.06 99
20260506213921 60 334 4.3 6.1 0.00 0.06 0.06 99
20260506213418 60 204 1.7 2.6 0.07 0.06 0.06 99
20260506212915 60 133 2.6 7.0 0.07 0.06 0.06 99
20260506212411 60 274 3.5 5.2 0.00 0.05 0.05 99
20260506211906 60 271 2.6 6.1 0.00 0.05 0.05 99
20260506211403 61 330 1.7 2.6 0.00 0.05 0.05 98
20260506210900 61 285 0.9 8.7 0.00 0.05 0.05 98
20260506210356 60 210 3.5 7.0 0.00 0.05 0.05 98
20260506205854 61 311 1.7 7.0 0.00 0.05 0.05 98
20260506205349 61 260 1.7 8.7 0.00 0.05 0.05 98
20260506204846 61 249 2.6 4.3 0.00 0.05 0.05 98
20260506204344 61 241 0.9 2.6 0.00 0.05 0.05 98
20260506203841 60 192 3.5 6.1 0.00 0.05 0.05 98
20260506203338 60 289 5.2 8.7 0.00 0.05 0.05 98
20260506202835 60 16 0.9 7.8 0.00 0.05 0.05 98
20260506202332 60 235 4.3 7.0 0.00 0.05 0.05 97
20260506201828 61 356 0.9 4.3 0.00 0.05 0.05 98
20260506201326 60 300 0.0 1.7 0.00 0.05 0.05 98
20260506200823 61 292 2.6 4.3 0.00 0.05 0.05 97
20260506200319 61 294 1.7 4.3 0.00 0.05 0.05 97
20260506195815 61 214 3.5 4.3 0.00 0.05 0.05 97
20260506195312 61 286 2.6 7.8 0.00 0.05 0.05 98
20260506194809 61 298 1.7 6.1 0.07 0.05 0.05 98
20260506194305 61 284 0.9 0.9 0.07 0.05 0.05 98
20260506193803 62 216 0.9 0.9 0.05 0.04 0.04 97
20260506193300 61 62 0.0 1.7 0.05 0.04 0.04 96
20260506192756 61 226 2.6 4.3 0.07 0.03 0.03 95
20260506192253 62 258 2.6 5.2 0.07 0.03 0.03 94
20260506191750 62 248 5.2 7.0 0.05 0.02 0.02 92
20260506191246 62 294 4.3 7.0 0.05 0.02 0.02 91
20260506190743 62 276 7.8 12.2 0.00 0.01 0.01 90
20260506190240 63 221 4.3 7.0 0.07 0.01 0.01 89
20260506185737 64 232 2.6 7.0 0.07 0.01 0.01 87
20260506185234 64 190 2.6 6.1 0.00 0.00 0.00 84
20260506184731 66 274 2.6 5.2 0.00 0.00 0.00 81
20260506184228 66 247 2.6 7.0 0.00 0.00 0.00 79
20260506183725 66 227 4.3 7.8 0.00 0.00 0.00 77
20260506183220 67 270 2.6 4.3 0.00 0.00 0.00 76
20260506182718 68 255 5.2 6.1 0.00 0.00 0.00 74
20260506182215 68 298 4.3 7.0 0.00 0.00 0.00 73
20260506181713 68 294 5.2 7.8 0.00 0.00 0.00 71
20260506181210 68 264 7.0 11.3 0.00 0.00 0.00 70
20260506180707 69 281 7.0 8.7 0.00 0.00 0.00 70
20260506180203 69 219 3.5 9.6 0.00 0.00 0.00 69
20260506175659 69 197 6.1 15.6 0.00 0.00 0.00 67
20260506175156 69 322 7.0 9.6 0.00 0.00 0.00 68
20260506174649 70 124 5.2 7.8 0.00 0.00 0.00 67
20260506174145 70 60 3.5 13.0 0.00 0.00 0.00 67
20260506173643 71 261 4.3 7.0 0.00 0.00 0.00 66
20260506173134 71 272 3.5 6.1 0.00 0.00 0.00 66
20260506172631 71 265 7.0 13.0 0.00 0.00 0.00 64
20260506172127 71 265 4.3 13.0 0.00 0.00 0.00 64
20260506171625 71 255 4.3 8.7 0.00 0.00 0.00 63
20260506171123 72 283 3.5 5.2 0.00 0.00 0.00 64
20260506170620 72 324 3.5 7.0 0.00 0.00 0.00 63
20260506170117 72 176 2.6 7.0 0.00 0.00 0.00 64
20260506165615 72 226 4.3 12.2 0.00 0.00 0.00 63
20260506165111 72 283 1.7 6.1 0.00 0.00 0.00 64
20260506164608 71 220 3.5 7.8 0.00 0.00 0.00 64
20260506164106 71 194 4.3 7.0 0.00 0.00 0.00 66
20260506163601 71 253 4.3 9.6 0.00 0.00 0.00 63
20260506163057 71 256 3.5 9.6 0.00 0.00 0.00 64
20260506162554 72 197 6.1 11.3 0.00 0.00 0.00 62
20260506162051 72 309 2.6 7.0 0.00 0.00 0.00 65
20260506161549 71 284 2.6 9.6 0.00 0.00 0.00 65
20260506161045 71 201 6.1 7.8 0.00 0.00 0.00 63
20260506160543 71 273 2.6 7.8 0.00 0.00 0.00 64
20260506160040 71 210 3.5 8.7 0.00 0.00 0.00 64
20260506155539 71 283 4.3 7.0 0.00 0.00 0.00 65
20260506153715 70 254 2.6 2.6 0.00 0.00 0.00 67
20260506153213 70 258 3.5 7.8 0.00 0.00 0.00 68
20260506152709 71 310 2.6 5.2 0.00 0.00 0.00 68
20260506152207 70 175 1.7 9.6 0.00 0.00 0.00 68
20260506151706 71 217 1.7 8.7 0.00 0.00 0.00 69
20260506151202 71 245 10.4 20.0 0.00 0.00 0.00 66
20260506150658 71 267 6.1 14.8 0.00 0.00 0.00 65
20260506150155 71 242 2.6 5.2 0.00 0.00 0.00 68
20260506145652 72 36 0.9 13.9 0.00 0.00 0.00 67
20260506145149 71 249 2.6 6.1 0.00 0.00 0.00 67
20260506144647 71 260 0.9 7.0 0.00 0.00 0.00 69
20260506144143 70 196 3.5 7.0 0.00 0.00 0.00 67
20260506143641 71 357 4.3 8.7 0.00 0.00 0.00 67
20260506143139 70 292 2.6 7.8 0.00 0.00 0.00 69
20260506142637 71 301 3.5 5.2 0.00 0.00 0.00 68
20260506142135 70 269 0.9 1.7 0.00 0.00 0.00 69
20260506141632 70 300 3.5 7.8 0.00 0.00 0.00 70
20260506141130 70 280 1.7 6.1 0.00 0.00 0.00 70
20260506140628 70 245 3.5 11.3 0.00 0.00 0.00 72
20260506140125 70 320 1.7 5.2 0.00 0.00 0.00 73
20260506135622 70 208 4.3 7.8 0.00 0.00 0.00 71
20260506135118 70 291 1.7 2.6 0.00 0.00 0.00 75
20260506134614 70 288 2.6 5.2 0.00 0.00 0.00 73
20260506134110 68 215 3.5 5.2 0.00 0.00 0.00 75
20260506133608 69 286 0.9 2.6 0.00 0.00 0.00 77
20260506133104 67 200 7.0 11.3 0.00 0.00 0.00 76
20260506132602 67 204 2.6 6.1 0.00 0.00 0.00 76
20260506132059 67 249 2.6 4.3 0.00 0.00 0.00 77
20260506131556 67 204 1.7 4.3 0.00 0.00 0.00 77
20260506131052 67 269 2.6 2.6 0.00 0.00 0.00 78
20260506130549 66 215 3.5 5.2 0.00 0.00 0.00 77
20260506130047 67 261 2.6 7.0 0.00 0.00 0.00 77
20260506125545 68 273 2.6 7.0 0.00 0.00 0.00 76
20260506125042 67 259 1.7 5.2 0.00 0.00 0.00 78
20260506124540 66 285 4.3 6.1 0.00 0.00 0.00 78
20260506124038 65 293 6.1 9.6 0.00 0.00 0.00 79
20260506123535 64 184 1.7 7.0 0.00 0.00 0.00 81
20260506123034 64 324 4.3 7.0 0.00 0.00 0.00 82
20260506122530 64 312 2.6 8.7 0.00 0.00 0.00 81
20260506122028 64 305 2.6 7.8 0.00 0.00 0.00 82
20260506121525 64 220 3.5 5.2 0.00 0.00 0.00 83
20260506121021 63 277 1.7 11.3 0.00 0.00 0.00 83
20260506120519 63 263 3.5 5.2 0.00 0.00 0.00 83
20260506120017 64 77 0.9 5.2 0.00 0.00 0.00 83
20260506115514 63 152 2.6 4.3 0.00 0.00 0.00 84
20260506115013 62 286 5.2 7.0 0.00 0.00 0.00 85
20260506114509 62 216 1.7 6.1 0.00 0.00 0.00 85
20260506114008 62 283 2.6 4.3 0.00 0.00 0.00 86
20260506113505 61 288 2.6 7.0 0.00 0.00 0.00 86
20260506113002 61 237 0.9 4.3 0.00 0.00 0.00 86
20260506112459 62 294 2.6 6.1 0.00 0.00 0.00 86
20260506111956 61 282 2.6 4.3 0.00 0.00 0.00 86
20260506111454 61 237 1.7 6.1 0.00 0.00 0.00 87
20260506110951 61 272 2.6 6.1 0.00 0.00 0.00 87
20260506110449 61 295 0.9 4.3 0.00 0.00 0.00 86
20260506105945 61 256 2.6 6.1 0.00 0.00 0.00 87
20260506105442 60 284 0.9 5.2 0.00 0.00 0.00 88
20260506104939 60 310 0.9 6.1 0.00 0.00 0.00 88
20260506104437 60 259 1.7 2.6 0.00 0.00 0.00 88
20260506103935 60 220 1.7 1.7 0.00 0.00 0.00 89
20260506103432 60 329 0.9 2.6 0.00 0.00 0.00 89
20260506102929 59 159 1.7 7.0 0.00 0.00 0.00 89
20260506102427 59 220 2.6 2.6 0.00 0.00 0.00 89
20260506101924 59 222 1.7 1.7 0.00 0.00 0.00 89
20260506101420 59 217 1.7 1.7 0.00 0.00 0.00 89
20260506100918 59 324 2.6 4.3 0.00 0.00 0.00 90
20260506100416 59 306 1.7 1.7 0.00 0.00 0.00 89
20260506095914 59 290 3.5 5.2 0.00 0.00 0.00 89
20260506095412 59 259 1.7 4.3 0.00 0.00 0.00 89
20260506094908 59 310 0.0 1.7 0.00 0.00 0.00 90
20260506094407 59 343 0.0 2.6 0.00 0.00 0.00 89
20260506093904 59 301 2.6 5.2 0.00 0.00 0.00 89
20260506093401 59 196 2.6 5.2 0.00 0.00 0.00 89
20260506092859 59 224 0.9 2.6 0.00 0.00 0.00 89
20260506092357 59 242 3.5 5.2 0.00 0.00 0.00 89
20260506091853 59 283 2.6 2.6 0.00 0.00 0.00 89
20260506091351 59 293 1.7 1.7 0.00 0.00 0.00 88
20260506090848 59 206 0.9 1.7 0.00 0.00 0.00 88
20260506090346 59 63 0.9 1.7 0.00 0.00 0.00 88
20260506085842 59 258 2.6 5.2 0.00 0.00 0.00 88
20260506085338 59 233 1.7 7.0 0.00 0.00 0.00 88
20260506084835 59 42 0.9 0.9 0.00 0.00 0.00 88
20260506084332 59 238 0.9 1.7 0.00 0.00 0.00 87
20260506083829 59 260 0.9 2.6 0.00 0.00 0.00 87
20260506083326 60 316 2.6 4.3 0.00 0.00 0.00 87
20260506082824 59 161 1.7 6.1 0.00 0.00 0.00 87
20260506082320 60 304 3.5 9.6 0.00 0.00 0.00 86
20260506081816 60 211 1.7 1.7 0.00 0.00 0.00 86
20260506081314 60 262 0.9 1.7 0.00 0.00 0.00 86
20260506080812 60 169 2.6 4.3 0.00 0.00 0.00 85
20260506080308 60 188 2.6 7.8 0.00 0.00 0.00 84
20260506073252 61 273 1.7 4.3 0.00 0.00 0.00 83
20260506072749 61 310 0.9 4.3 0.00 0.00 0.00 83
20260506072246 61 216 2.6 4.3 0.00 0.00 0.00 82
20260506071744 61 274 5.2 7.0 0.00 0.00 0.00 82
20260506071242 61 325 0.9 1.7 0.00 0.00 0.00 82
20260506070738 62 191 0.9 6.1 0.00 0.00 0.00 81
20260506070235 62 242 4.3 7.0 0.00 0.00 0.00 81
20260506062212 63 231 1.7 11.3 0.00 0.00 0.00 78
20260506061708 63 271 4.3 7.8 0.00 0.00 0.00 78
20260506061206 63 263 0.9 4.3 0.00 0.00 0.00 77
20260506060704 63 215 2.6 8.7 0.00 0.00 0.00 76
20260506060201 64 298 4.3 7.8 0.00 0.00 0.00 75
20260506051133 64 250 4.3 7.0 0.00 0.00 0.00 73
20260506050631 64 287 7.0 11.3 0.00 0.00 0.00 72
20260506050128 64 220 5.2 7.8 0.00 0.00 0.00 72
20260506045121 64 249 5.2 9.6 0.00 0.00 0.00 71
20260506044619 64 280 2.6 6.1 0.00 0.00 0.00 72
20260506044116 64 335 4.3 7.8 0.00 0.00 0.00 72
20260506043613 63 231 5.2 9.6 0.00 0.00 0.00 72
20260506043111 64 245 2.6 4.3 0.00 0.00 0.00 72
20260506042610 64 259 2.6 5.2 0.00 0.00 0.00 71
20260506042107 64 327 2.6 5.2 0.00 0.00 0.00 71
20260506041606 64 276 4.3 6.1 0.00 0.00 0.00 70
20260506041102 64 259 4.3 11.3 0.00 0.00 0.00 70
20260506040600 64 225 3.5 8.7 0.00 0.00 0.00 71
20260506040056 64 304 0.9 5.2 0.00 0.00 0.00 70
20260506035553 64 280 7.0 8.7 0.00 0.00 0.00 70
20260506035050 64 298 3.5 5.2 0.00 0.00 0.00 70
20260506034547 64 282 2.6 7.8 0.00 0.00 0.00 69
20260506034044 64 303 4.3 6.1 0.00 0.00 0.00 69
20260506033541 64 329 4.3 7.0 0.00 0.00 0.00 70
20260506033038 64 298 4.3 8.7 0.00 0.00 0.00 69
20260506032536 63 67 3.5 7.0 0.00 0.00 0.00 70
20260506032032 64 237 2.6 2.6 0.00 0.00 0.00 70
20260506031530 64 255 4.3 7.0 0.00 0.00 0.00 70
20260506031027 64 191 5.2 7.0 0.00 0.00 0.00 69
20260506030525 64 294 1.7 5.2 0.00 0.00 0.00 69
20260506030022 64 218 2.6 7.0 0.00 0.00 0.00 69
20260506025519 64 298 5.2 7.0 0.00 0.00 0.00 69
20260506025015 64 199 4.3 12.2 0.00 0.00 0.00 68
20260506024512 64 279 4.3 7.0 0.00 0.00 0.00 69
20260506024008 64 270 1.7 2.6 0.00 0.00 0.00 69
20260506023504 64 257 2.6 7.8 0.00 0.00 0.00 68
20260506023002 64 214 2.6 13.9 0.00 0.00 0.00 68
20260506022459 64 230 7.8 12.2 0.00 0.00 0.00 68
20260506021957 64 305 5.2 7.8 0.00 0.00 0.00 69
20260506021454 64 269 4.3 7.0 0.00 0.00 0.00 68